TimeEST,TemperatureF,Dew PointF,Humidity,Sea Level PressureIn,VisibilityMPH,Wind Direction,Wind SpeedMPH,Gust SpeedMPH,PrecipitationIn,Events,Conditions,WindDirDegrees,DateUTC
12:06 AM,41.0,41.0,100,30.12,0.8,Calm,Calm,-,N/A,,Overcast,0,2011-11-29 05:06:00
12:23 AM,39.2,39.2,100,30.12,1.0,Calm,Calm,-,N/A,,Overcast,0,2011-11-29 05:23:00
12:44 AM,39.2,39.2,100,30.11,0.5,Calm,Calm,-,N/A,Fog,Fog,0,2011-11-29 05:44:00
12:54 AM,39.9,39.9,100,30.13,0.8,Calm,Calm,-,N/A,,Overcast,0,2011-11-29 05:54:00
1:07 AM,39.2,39.2,100,30.12,1.5,Calm,Calm,-,N/A,,Overcast,0,2011-11-29 06:07:00
1:18 AM,39.2,39.2,100,30.11,1.0,NNW,3.5,-,N/A,,Overcast,330,2011-11-29 06:18:00
1:26 AM,39.2,39.2,100,30.12,0.5,Calm,Calm,-,N/A,Fog,Fog,0,2011-11-29 06:26:00
1:50 AM,42.8,41.0,93,30.12,1.2,Calm,Calm,-,N/A,,Overcast,0,2011-11-29 06:50:00
1:54 AM,39.9,39.9,100,30.13,1.5,NW,3.5,-,N/A,,Overcast,320,2011-11-29 06:54:00
2:14 AM,39.2,39.2,100,30.12,1.0,Calm,Calm,-,N/A,,Overcast,0,2011-11-29 07:14:00
2:22 AM,41.0,41.0,100,30.12,2.0,Calm,Calm,-,N/A,,Overcast,0,2011-11-29 07:22:00
2:46 AM,42.8,42.8,100,30.13,1.2,Calm,Calm,-,N/A,,Overcast,0,2011-11-29 07:46:00
2:54 AM,41.0,41.0,100,30.14,0.8,Calm,Calm,-,N/A,,Overcast,0,2011-11-29 07:54:00
3:09 AM,39.2,39.2,100,30.14,1.0,Calm,Calm,-,N/A,,Overcast,0,2011-11-29 08:09:00
3:12 AM,39.2,39.2,100,30.13,2.0,Calm,Calm,-,N/A,,Overcast,0,2011-11-29 08:12:00
3:31 AM,39.2,39.2,100,30.13,0.8,Calm,Calm,-,N/A,,Overcast,0,2011-11-29 08:31:00
3:42 AM,39.2,39.2,100,30.13,1.5,Calm,Calm,-,N/A,,Overcast,0,2011-11-29 08:42:00
3:46 AM,39.2,39.2,100,30.13,3.0,Calm,Calm,-,N/A,,Overcast,0,2011-11-29 08:46:00
3:54 AM,39.0,39.0,100,30.14,5.0,Calm,Calm,-,N/A,,Overcast,0,2011-11-29 08:54:00
4:04 AM,39.2,39.2,100,30.13,1.8,Calm,Calm,-,N/A,,Overcast,0,2011-11-29 09:04:00
4:12 AM,39.2,39.2,100,30.13,1.0,Calm,Calm,-,N/A,,Overcast,0,2011-11-29 09:12:00
4:21 AM,39.2,39.2,100,30.13,2.0,Calm,Calm,-,N/A,,Overcast,0,2011-11-29 09:21:00
4:35 AM,41.0,41.0,100,30.13,1.2,Calm,Calm,-,N/A,,Overcast,0,2011-11-29 09:35:00
4:54 AM,39.9,39.9,100,30.15,1.5,WNW,3.5,-,N/A,,Overcast,290,2011-11-29 09:54:00
4:58 AM,39.2,39.2,100,30.13,3.0,Calm,Calm,-,N/A,,Overcast,0,2011-11-29 09:58:00
5:33 AM,42.8,41.0,93,30.13,1.8,Calm,Calm,-,N/A,,Overcast,0,2011-11-29 10:33:00
5:42 AM,42.8,42.8,100,30.14,1.2,Calm,Calm,-,N/A,,Overcast,0,2011-11-29 10:42:00
5:54 AM,39.9,39.9,100,30.15,1.2,Calm,Calm,-,N/A,,Overcast,0,2011-11-29 10:54:00
6:03 AM,39.2,39.2,100,30.14,5.0,Calm,Calm,-,N/A,,Overcast,0,2011-11-29 11:03:00
6:16 AM,41.0,39.2,93,30.14,1.8,Calm,Calm,-,N/A,,Overcast,0,2011-11-29 11:16:00
6:26 AM,41.0,41.0,100,30.14,3.0,Calm,Calm,-,N/A,,Overcast,0,2011-11-29 11:26:00
6:51 AM,41.0,41.0,100,30.13,1.5,Calm,Calm,-,N/A,,Overcast,0,2011-11-29 11:51:00
7:00 AM,41.0,41.0,100,30.13,0.5,Calm,Calm,-,N/A,Fog,Fog,0,2011-11-29 12:00:00
7:20 AM,39.2,39.2,100,30.14,1.5,Calm,Calm,-,N/A,,Overcast,0,2011-11-29 12:20:00
7:26 AM,41.0,39.2,93,30.13,3.0,Calm,Calm,-,N/A,,Overcast,0,2011-11-29 12:26:00
7:54 AM,39.9,39.9,100,30.15,3.0,Calm,Calm,-,0.00,Rain,Light Rain,0,2011-11-29 12:54:00
8:21 AM,41.0,41.0,100,30.14,1.8,Calm,Calm,-,0.00,,Overcast,0,2011-11-29 13:21:00
8:25 AM,41.0,41.0,100,30.13,1.0,Calm,Calm,-,0.00,,Overcast,0,2011-11-29 13:25:00
8:33 AM,42.8,42.8,100,30.13,0.8,Calm,Calm,-,0.00,,Overcast,0,2011-11-29 13:33:00
8:54 AM,43.0,42.1,97,30.14,1.2,Calm,Calm,-,0.00,,Overcast,0,2011-11-29 13:54:00
8:58 AM,42.8,42.8,100,30.13,2.5,Calm,Calm,-,N/A,,Overcast,0,2011-11-29 13:58:00
9:05 AM,42.8,42.8,100,30.14,6.0,West,3.5,-,N/A,,Overcast,270,2011-11-29 14:05:00
9:54 AM,45.0,44.1,97,30.15,10.0,Calm,Calm,-,N/A,,Overcast,0,2011-11-29 14:54:00
10:54 AM,46.0,44.1,93,30.13,10.0,Calm,Calm,-,N/A,,Overcast,0,2011-11-29 15:54:00
11:13 AM,46.4,44.6,93,30.11,10.0,Calm,Calm,-,N/A,,Overcast,0,2011-11-29 16:13:00
11:54 AM,46.0,43.0,89,30.11,10.0,Calm,Calm,-,N/A,,Overcast,0,2011-11-29 16:54:00
12:54 PM,46.9,44.1,90,30.10,10.0,Calm,Calm,-,N/A,,Overcast,0,2011-11-29 17:54:00
1:12 PM,46.4,44.6,93,30.08,10.0,Calm,Calm,-,N/A,,Overcast,0,2011-11-29 18:12:00
1:54 PM,46.0,44.1,93,30.08,10.0,Calm,Calm,-,N/A,,Overcast,0,2011-11-29 18:54:00
2:54 PM,45.0,45.0,100,30.07,1.8,Calm,Calm,-,0.00,,Overcast,0,2011-11-29 19:54:00
3:16 PM,44.6,44.6,100,30.06,1.0,Calm,Calm,-,N/A,,Overcast,0,2011-11-29 20:16:00
3:27 PM,44.6,44.6,100,30.05,0.8,Calm,Calm,-,N/A,,Overcast,0,2011-11-29 20:27:00
3:38 PM,44.6,44.6,100,30.05,1.5,Calm,Calm,-,N/A,,Overcast,0,2011-11-29 20:38:00
3:54 PM,44.1,43.0,96,30.06,2.0,Calm,Calm,-,N/A,,Overcast,0,2011-11-29 20:54:00
4:01 PM,44.6,42.8,93,30.05,1.2,Calm,Calm,-,N/A,,Overcast,0,2011-11-29 21:01:00
4:16 PM,44.6,44.6,100,30.04,2.0,Calm,Calm,-,N/A,,Overcast,0,2011-11-29 21:16:00
4:36 PM,44.6,44.6,100,30.04,3.0,Calm,Calm,-,N/A,,Overcast,0,2011-11-29 21:36:00
4:48 PM,44.6,44.6,100,30.03,1.8,North,3.5,-,N/A,,Overcast,350,2011-11-29 21:48:00
4:54 PM,45.0,44.1,97,30.05,1.0,Calm,Calm,-,N/A,,Overcast,0,2011-11-29 21:54:00
5:11 PM,44.6,44.6,100,30.03,2.0,NNE,3.5,-,N/A,,Overcast,30,2011-11-29 22:11:00
5:27 PM,44.6,44.6,100,30.02,1.2,Calm,Calm,-,N/A,,Overcast,0,2011-11-29 22:27:00
5:37 PM,44.6,44.6,100,30.02,0.8,Calm,Calm,-,N/A,,Mist,0,2011-11-29 22:37:00
5:54 PM,43.0,43.0,100,30.04,0.5,Calm,Calm,-,N/A,Fog,Fog,0,2011-11-29 22:54:00
6:03 PM,42.8,42.8,100,30.02,0.2,Calm,Calm,-,N/A,Fog,Fog,0,2011-11-29 23:03:00
6:54 PM,43.0,43.0,100,30.02,0.2,Calm,Calm,-,N/A,Fog,Fog,0,2011-11-29 23:54:00
7:54 PM,41.0,41.0,100,29.99,0.2,Calm,Calm,-,N/A,Fog,Fog,0,2011-11-30 00:54:00
8:34 PM,41.0,41.0,100,29.95,0.5,Calm,Calm,-,0.01,Fog-Rain,Light Rain,0,2011-11-30 01:34:00
8:54 PM,42.1,42.1,100,29.95,0.5,Calm,Calm,-,0.01,Fog,Fog,0,2011-11-30 01:54:00
9:54 PM,43.0,43.0,100,29.91,0.8,Calm,Calm,-,0.03,,Mist,0,2011-11-30 02:54:00
10:30 PM,42.8,42.8,100,29.87,1.0,Calm,Calm,-,0.03,Rain,Light Rain,0,2011-11-30 03:30:00
10:46 PM,42.8,42.8,100,29.86,0.8,Calm,Calm,-,0.03,,Mist,0,2011-11-30 03:46:00
10:54 PM,42.1,42.1,100,29.87,1.0,Calm,Calm,-,0.04,,Mist,0,2011-11-30 03:54:00
11:04 PM,42.8,42.8,100,29.84,0.8,Calm,Calm,-,0.00,Rain,Light Rain,0,2011-11-30 04:04:00
11:51 PM,42.8,42.8,100,29.80,1.2,Calm,Calm,-,0.06,Rain,Light Rain,0,2011-11-30 04:51:00
11:54 PM,43.0,43.0,100,29.82,1.5,Calm,Calm,-,0.06,Rain,Light Rain,0,2011-11-30 04:54:00